Location: El Diablo
(32.4667°N, 116.4500°W)
Time: 01:58:33
(UTC+00:00)

Cosmos 1818 - Pass Details

Date: 10 September 2024
Orbit: 771 x 801 km, 65.0° (Epoch: 06 October)

Event Time Altitude Azimuth Distance (km) Brightness Sun altitude
Rises 12:30:07 0° 326° (NW) 3,307 6.6 -12.6°
Reaches altitude 10° 12:32:37 10° 321° (NW) 2,371 5.8 -12.1°
Maximum altitude 12:37:52 51° 247° (WSW) 989 3.7 -11.0°
Drops below altitude 10° 12:43:05 10° 172° (S) 2,342 6.0 -9.9°
Sets 12:45:32 0° 167° (SSE) 3,263 6.8 -9.4°
